La Vergne, TN

9:49 AM CST on December 05, 2016 (GMT -0600)
Smyrna

Weather History for KMQY - August, 2014

Change the Weather History Date:

Monday, August 4, 2014

  Actual Average Record
Temperature  
Mean Temperature 78 °F -  
Max Temperature 97 °F 85 °F 106 °F (2010)
Min Temperature 61 °F 68 °F 61 °F (2014)
Cooling Degree Days 13    
Growing Degree Days 28 (Base 50)    
Moisture  
Dew Point 60 °F    
Average Humidity 63    
Maximum Humidity 100    
Minimum Humidity 23    
Precipitation  
Precipitation 0.00 in - - ()
Sea Level Pressure  
Sea Level Pressure 30.10 in    
Wind  
Wind Speed 2 mph (East)    
Max Wind Speed 9 mph    
Max Gust Speed -    
Visibility 10 miles    
Events      
Averages and records for this station are not official NWS values.
T = Trace of Precipitation, MM = Missing Value Source: NWS Daily Summary

Daily Weather History Graph

Daily Weather History Graph

Search for Another Location

Airport or City:

Trip Planner

Search our weather history database for the weather conditions in past years. The results will help you decide how hot, cold, wet, or windy it might be!

Date:

Astronomy

Aug. 04, 2014 Rise Set
Actual Time 5:55 AM CDT 7:48 PM CDT
Civil Twilight 5:27 AM CDT 8:15 PM CDT
Nautical Twilight 4:53 AM CDT 8:49 PM CDT
Astronomical Twilight 4:17 AM CDT 9:25 PM CDT
Moon 2:00 PM CDT (8/4) 12:00 AM CDT (8/4)
Length of Visible Light 14h 48m
Length of Day
13h 52m
First Quarter, 57% of the Moon is Illuminated
Aug 4
First Quarter
Aug 10
Full
Aug 17
Last Quarter
Aug 25
New
Sep 2
First Quarter

Hourly Weather History & Observations

Time (CDT) Temp. Heat Index Dew Point Humidity Pressure Visibility Wind Dir Wind Speed Gust Speed Precip Events Conditions
12:56 AM 66.9 °F - 61.9 °F 84% 30.11 in 10.0 mi Calm Calm - N/A   Clear
1:56 AM 64.9 °F - 61.9 °F 90% 30.10 in 10.0 mi Calm Calm - N/A   Clear
2:56 AM 63.0 °F - 59.9 °F 90% 30.09 in 10.0 mi Calm Calm - N/A   Clear
3:56 AM 63.0 °F - 61.9 °F 96% 30.10 in 10.0 mi Calm Calm - N/A   Clear
4:56 AM 61.9 °F - 61.0 °F 97% 30.12 in 10.0 mi Calm Calm - N/A   Clear
5:56 AM 61.0 °F - 59.9 °F 96% 30.13 in 10.0 mi Calm Calm - N/A   Clear
6:56 AM 63.0 °F - 63.0 °F 100% 30.14 in 10.0 mi Calm Calm - N/A   Clear
7:56 AM 68.9 °F - 65.8 °F 90% 30.15 in 10.0 mi Calm Calm - N/A   Clear
8:56 AM 75.9 °F - 63.0 °F 64% 30.15 in 8.0 mi Calm Calm - N/A   Clear
9:56 AM 82.9 °F 84.6 °F 64.9 °F 54% 30.14 in 10.0 mi Calm Calm - N/A   Clear
10:56 AM 88.0 °F 88.7 °F 63.0 °F 43% 30.14 in 10.0 mi Variable 4.6 mph - N/A   Clear
11:56 AM 90.9 °F 89.4 °F 56.8 °F 32% 30.13 in 10.0 mi ENE 4.6 mph - N/A   Clear
12:56 PM 93.9 °F 92.6 °F 56.8 °F 29% 30.11 in 10.0 mi Variable 5.8 mph - N/A   Clear
1:56 PM 95.9 °F - 52.0 °F 23% 30.09 in 10.0 mi NNE 6.9 mph - N/A   Partly Cloudy
3:56 PM 95.9 °F 93.6 °F 54.0 °F 24% 30.05 in 10.0 mi North 9.2 mph - N/A   Partly Cloudy
4:56 PM 93.9 °F 91.7 °F 54.0 °F 26% 30.04 in 10.0 mi East 9.2 mph - N/A   Partly Cloudy
5:56 PM 91.9 °F 90.3 °F 55.9 °F 30% 30.04 in 10.0 mi East 8.1 mph - N/A   Partly Cloudy
6:56 PM 83.8 °F 83.8 °F 59.9 °F 44% 30.05 in 10.0 mi SE 8.1 mph - N/A   Clear
7:56 PM 77.9 °F - 59.9 °F 54% 30.06 in 10.0 mi SSE 4.6 mph - N/A   Clear
9:56 PM 68.0 °F - 61.0 °F 78% 30.09 in 10.0 mi Calm Calm - N/A   Clear
10:56 PM 66.9 °F - 63.0 °F 87% 30.09 in 10.0 mi Calm Calm - N/A   Clear